[[{"header":{"parameterUnit":"m.s-1","parameterCategory":1,"la1":30.2991,"la2":30.254,"lo1":-89.0895,"lo2":-89.0444,"dy":0.0017,"dx":0.0017,"nx":28,"ny":28,"refTime":"2023-10-09T09:00:00:Z","depth":0,"parameterNumber":2,"parameterNumberName":"U-component_of_WINDS"},"data":[0,0,0,0,0,0,0,0,0,0,0,0,0,0,0,0,0,0,0,0,0,0,0,0,0,0,0,0,0,0,0,0,0,0,0,0,0,0,0,0,0,0,0,0,0,0,0,0,0,0,0,0,0,0,0,0,0,0,-0.3608,-0.3608,0,-0.3612,-0.3612,-0.3612,-0.3583,-0.3583,-0.3582,-0.3581,-0.3586,-0.3587,-0.3588,0,0,0,0,0,0,0,0,0,0,0,0,0,-0.3577,-0.3578,-0.3608,-0.3608,-0.3608,-0.3612,-0.3612,-0.3612,-0.3584,-0.3583,-0.3582,-0.3581,-0.3586,-0.3587,-0.3588,0,0,0,0,0,0,0,0,0,0,0,0,0,-0.3587,-0.3578,-0.3608,-0.3594,-0.3593,-0.3612,-0.3612,-0.3612,-0.3584,-0.3583,-0.3581,-0.358,-0.3585,-0.3587,-0.3588,-0.362,0,0,-0.3592,-0.3592,0,0,0,0,0,0,0,0,-0.3586,-0.3588,-0.3596,-0.3595,-0.3594,-0.3596,-0.3603,-0.3615,-0.3584,-0.3587,-0.3581,-0.358,-0.359,-0.3591,-0.3595,-0.362,-0.3621,-0.3592,-0.3593,-0.3593,-0.3594,0,0,0,0,0,0,0,-0.3586,-0.3588,-0.3609,-0.3596,-0.3595,-0.3588,-0.3588,-0.3605,-0.3596,-0.3587,-0.3585,-0.3586,-0.3589,-0.3593,-0.3594,-0.3621,-0.3592,-0.3593,-0.3594,-0.3595,-0.3675,-0.3676,0,0,0,0,0,0,-0.3587,-0.3587,-0.3609,-0.361,-0.3587,-0.359,-0.359,-0.3596,-0.3595,-0.3594,-0.3587,-0.3584,-0.3592,-0.3593,-0.3595,-0.3633,-0.3593,-0.3595,-0.3595,-0.3673,-0.3675,-0.3676,0,0,0,0,0,0,-0.3586,-0.3589,-0.3609,-0.3598,-0.36,-0.3592,-0.3599,-0.3597,-0.3601,-0.3595,-0.3593,-0.3592,-0.3591,-0.3593,-0.3614,-0.3632,-0.3595,-0.3596,-0.3672,-0.3674,-0.3676,-0.3709,0,0,0,0,0,0,-0.3585,-0.3589,-0.3601,-0.3598,-0.3601,-0.3628,-0.36,-0.3598,-0.3603,-0.36,-0.36,-0.3599,-0.359,-0.3612,-0.3616,-0.3633,-0.3597,-0.367,-0.3673,-0.3675,-0.3706,-0.3712,-0.3716,0,0,0,0,0,-0.3584,-0.361,-0.3601,-0.3604,-0.3615,-0.3629,-0.3631,-0.362,-0.3605,-0.3617,-0.3613,-0.3599,-0.363,-0.3615,-0.3618,-0.3637,-0.3669,-0.3672,-0.3675,-0.3704,-0.3711,-0.3716,0,0,0,0,0,0,-0.3614,-0.3609,-0.36,-0.3625,-0.3628,-0.3624,-0.3639,-0.3627,-0.3635,-0.3632,-0.3618,-0.3619,-0.3642,-0.3642,-0.3625,-0.3669,-0.3647,-0.3651,-0.3668,-0.3674,-0.3679,-0.3679,-0.3599,0,0,0,0,0,-0.3624,-0.3635,-0.3631,-0.3653,-0.3655,-0.3647,-0.3653,-0.3645,-0.3647,-0.3648,-0.3646,-0.3649,-0.366,-0.3667,-0.3677,-0.3706,-0.3706,-0.3721,-0.3726,-0.373,-0.3734,-0.375,-0.3757,-0.3686,-0.3686,-0.3686,0,0,-0.3643,-0.3642,-0.365,-0.3659,-0.366,-0.3673,-0.3648,-0.3663,-0.3672,-0.365,-0.367,-0.3669,-0.3672,-0.3698,-0.371,-0.3698,-0.3753,-0.3734,-0.3738,-0.3739,-0.3754,-0.376,-0.3766,-0.3688,-0.3688,-0.3687,0,0,-0.3686,-0.3686,-0.3705,-0.3707,-0.3709,-0.3704,-0.3709,-0.3708,-0.3706,-0.3726,-0.371,-0.3722,-0.374,-0.3743,-0.3747,-0.3793,-0.378,-0.3796,-0.3823,-0.3839,-0.3845,-0.385,-0.3866,-0.3872,-0.38,-0.38,-0.38,0,-0.371,-0.3728,-0.3716,-0.3732,-0.3737,-0.3718,-0.3738,-0.3741,-0.3746,-0.375,-0.3738,-0.3761,-0.3762,-0.3789,-0.38,-0.3804,-0.3809,-0.3795,-0.3845,-0.385,-0.3854,-0.3869,-0.3876,-0.3802,-0.3801,-0.3801,-0.3801,0,-0.3757,-0.3771,-0.3786,-0.3792,-0.3798,-0.3816,-0.3808,-0.3816,-0.3808,-0.3804,-0.3826,-0.3826,-0.3836,-0.3842,-0.3834,-0.3868,-0.3861,-0.3847,-0.3825,-0.3863,-0.3877,-0.3883,-0.3804,-0.3804,-0.3803,-0.3803,0,0,-0.3817,-0.3817,-0.3823,-0.3825,-0.3827,-0.3838,-0.3855,-0.3865,-0.3872,-0.3877,-0.3892,-0.3909,-0.3896,-0.3901,-0.3893,-0.3908,-0.3944,-0.3892,-0.3892,-0.3902,-0.3982,-0.3992,-0.3999,-0.3936,-0.3937,-0.3938,-0.3982,0,-0.3858,-0.3887,-0.3878,-0.3907,-0.392,-0.3903,-0.3919,-0.3922,-0.392,-0.393,-0.3928,-0.394,-0.3923,-0.3926,-0.3939,-0.3937,-0.396,-0.3934,-0.395,-0.395,-0.3949,-0.4006,-0.4016,-0.4057,-0.3987,-0.3988,-0.3989,0,-0.3909,-0.3916,-0.3947,-0.3948,-0.3953,-0.3966,-0.3975,-0.3985,-0.3989,-0.3987,-0.3993,-0.3983,-0.4001,-0.3979,-0.4005,-0.3987,-0.3993,-0.3994,-0.3995,-0.3995,-0.3971,-0.4008,-0.407,-0.4076,-0.3998,-0.3997,-0.3996,0,-0.3949,-0.3966,-0.3987,-0.399,-0.3992,-0.4002,-0.4003,-0.4006,-0.4013,-0.402,-0.4025,-0.4035,-0.404,-0.4049,-0.4042,-0.4027,-0.4068,-0.4046,-0.4067,-0.4067,-0.4075,-0.4075,-0.4139,-0.4081,-0.4081,-0.4081,-0.4081,0,-0.3995,-0.4014,-0.4005,-0.4018,-0.404,-0.403,-0.4052,-0.4051,-0.4055,-0.4067,-0.4054,-0.4067,-0.4058,-0.407,-0.4065,-0.4087,-0.4089,-0.4088,-0.4086,-0.4089,-0.4089,-0.4092,-0.4089,-0.4082,-0.4082,-0.4082,-0.4081,0,-0.4042,-0.4037,-0.4058,-0.4059,-0.4059,-0.4075,-0.4076,-0.4088,-0.4085,-0.4102,-0.4106,-0.4101,-0.4115,-0.411,-0.4124,-0.4121,-0.4149,-0.4144,-0.4148,-0.4146,-0.4167,-0.4165,-0.4235,-0.4244,-0.418,-0.4181,-0.4181,0,-0.4072,-0.4086,-0.4088,-0.4096,-0.4098,-0.4111,-0.4117,-0.4109,-0.4117,-0.4124,-0.4135,-0.4148,-0.4158,-0.4181,-0.4179,-0.4191,-0.4186,-0.421,-0.4187,-0.419,-0.4186,-0.4185,-0.4186,-0.4214,-0.4214,-0.4215,-0.4216,0,-0.4124,-0.4121,-0.4131,-0.4141,-0.415,-0.4157,-0.4163,-0.417,-0.4162,-0.4172,-0.4186,-0.4194,-0.4209,-0.4222,-0.4233,-0.4235,-0.4224,-0.4223,-0.4228,-0.423,-0.4232,-0.4231,-0.4159,-0.4221,-0.422,-0.422,-0.422,-0.422,-0.4163,-0.4176,-0.4179,-0.4191,-0.4195,-0.4202,-0.4214,-0.4213,-0.4224,-0.4236,-0.4231,-0.4247,-0.4252,-0.4265,-0.4269,-0.4282,-0.4273,-0.4281,-0.4283,-0.4284,-0.4287,-0.4231,-0.4284,-0.4284,-0.4284,-0.4284,-0.4284,0,-0.4215,-0.4217,-0.4228,-0.4237,-0.4247,-0.4237,-0.4244,-0.4253,-0.4267,-0.4273,-0.4283,-0.4299,-0.4312,-0.4313,-0.4325,-0.4336,-0.4331,-0.4339,-0.4338,-0.4339,-0.4295,-0.4289,-0.4343,-0.4343,-0.4343,-0.4343,-0.4343,-0.4342,-0.4243,-0.4263,-0.4261,-0.4284,-0.4286,-0.4302,-0.4307,-0.4313,-0.4317,-0.4336,-0.4347,-0.4347,-0.4351,-0.4364,-0.4376,-0.4376,-0.4381,-0.4391,-0.4389,-0.4348,-0.4342,-0.4336,-0.433,-0.4392,-0.4392,-0.4432,-0.4432,-0.4432]},{"header":{"parameterUnit":"m.s-1","parameterCategory":1,"la1":30.2991,"la2":30.254,"lo1":-89.0895,"lo2":-89.0444,"dy":0.0017,"dx":0.0017,"nx":28,"ny":28,"refTime":"2023-10-09T09:00:00:Z","depth":0,"parameterNumber":3,"parameterNumberName":"V-component_of_WINDS"},"data":[0,0,0,0,0,0,0,0,0,0,0,0,0,0,0,0,0,0,0,0,0,0,0,0,0,0,0,0,0,0,0,0,0,0,0,0,0,0,0,0,0,0,0,0,0,0,0,0,0,0,0,0,0,0,0,0,0,0,2.1705,2.1705,0,2.1681,2.1681,2.168,2.1724,2.1725,2.1727,2.1728,2.1697,2.1695,2.1693,0,0,0,0,0,0,0,0,0,0,0,0,0,2.1784,2.1783,2.1705,2.1705,2.1705,2.1681,2.1681,2.168,2.1723,2.1725,2.1727,2.1729,2.1698,2.1695,2.1692,0,0,0,0,0,0,0,0,0,0,0,0,0,2.1754,2.1782,2.1706,2.1724,2.1725,2.1681,2.1681,2.168,2.1723,2.1725,2.1727,2.1729,2.1698,2.1695,2.1692,2.1628,0,0,2.1682,2.1681,0,0,0,0,0,0,0,0,2.1755,2.1751,2.1721,2.1722,2.1724,2.1708,2.1697,2.1662,2.1722,2.1723,2.1728,2.1731,2.1698,2.1695,2.1686,2.1626,2.1625,2.1682,2.168,2.1678,2.1677,0,0,0,0,0,0,0,2.1758,2.1752,2.1696,2.1721,2.1722,2.1731,2.1729,2.1691,2.1699,2.1724,2.1727,2.1724,2.1699,2.1689,2.1685,2.1624,2.1682,2.1679,2.1677,2.1676,2.1511,2.1509,0,0,0,0,0,0,2.1758,2.1754,2.1696,2.1695,2.1746,2.1728,2.1726,2.1711,2.1699,2.17,2.1722,2.1726,2.1693,2.1689,2.1684,2.1608,2.1678,2.1675,2.1673,2.1513,2.151,2.1508,0,0,0,0,0,0,2.176,2.1753,2.1697,2.1725,2.1719,2.1724,2.1707,2.1709,2.1698,2.1698,2.1699,2.171,2.1695,2.1689,2.1642,2.1607,2.1674,2.1671,2.1516,2.1512,2.1509,2.1455,0,0,0,0,0,0,2.1762,2.1753,2.173,2.1724,2.1717,2.1657,2.1705,2.1707,2.1693,2.1698,2.1687,2.1687,2.1696,2.1647,2.1639,2.1604,2.1668,2.1519,2.1514,2.151,2.1459,2.145,2.1441,0,0,0,0,0,2.1764,2.1714,2.1728,2.1721,2.1688,2.1655,2.165,2.1663,2.169,2.1666,2.1666,2.1687,2.1613,2.1641,2.1633,2.1597,2.1521,2.1516,2.1511,2.1464,2.1452,2.1441,0,0,0,0,0,0,2.1712,2.1713,2.1729,2.1676,2.1665,2.1662,2.1632,2.165,2.163,2.1635,2.1651,2.1648,2.1597,2.1592,2.1624,2.1534,2.1571,2.1564,2.1539,2.1527,2.1518,2.152,2.1665,0,0,0,0,0,2.1695,2.1669,2.1671,2.1624,2.1618,2.1626,2.1611,2.1623,2.1611,2.1606,2.1603,2.1589,2.1563,2.1545,2.1521,2.146,2.1457,2.1431,2.1422,2.1414,2.1407,2.1374,2.1362,2.149,2.149,2.149,0,0,2.1658,2.1656,2.1638,2.1613,2.1606,2.1578,2.1621,2.1589,2.1567,2.1601,2.1557,2.1554,2.154,2.1485,2.1461,2.148,2.1371,2.1407,2.1401,2.1398,2.1367,2.1355,2.1344,2.1486,2.1487,2.1488,0,0,2.1576,2.1572,2.1533,2.1525,2.1515,2.1521,2.1511,2.1506,2.1506,2.1462,2.1487,2.1461,2.1415,2.1404,2.1393,2.1308,2.1327,2.13,2.1251,2.1219,2.1209,2.12,2.1169,2.1158,2.1293,2.1293,2.1293,0,2.1531,2.1491,2.1509,2.1476,2.1463,2.1495,2.1454,2.1445,2.1427,2.1417,2.1439,2.1383,2.1376,2.1319,2.1299,2.1289,2.1277,2.13,2.1209,2.12,2.1192,2.1163,2.1151,2.129,2.129,2.129,2.1291,0,2.1435,2.1407,2.1376,2.1359,2.1344,2.1306,2.1318,2.13,2.1313,2.1316,2.1271,2.1264,2.1239,2.1227,2.1238,2.1172,2.1184,2.1207,2.1245,2.1176,2.1149,2.1138,2.1285,2.1286,2.1287,2.1288,0,0,2.1317,2.1314,2.1302,2.1295,2.1287,2.1264,2.1228,2.1206,2.119,2.1176,2.1145,2.1107,2.1129,2.1116,2.1127,2.1099,2.1031,2.1126,2.1125,2.1107,2.0957,2.0938,2.0925,2.1045,2.1043,2.1041,2.0958,0,2.1235,2.1176,2.1192,2.1131,2.1104,2.1135,2.1104,2.1094,2.1097,2.1073,2.1075,2.1048,2.1079,2.1072,2.1045,2.1045,2.1001,2.1052,2.1014,2.1013,2.1015,2.0911,2.0891,2.0812,2.0947,2.0945,2.0944,0,2.1131,2.1116,2.1053,2.1051,2.104,2.1011,2.0993,2.0971,2.0961,2.0964,2.0951,2.0967,2.093,2.097,2.0919,2.0953,2.0939,2.0936,2.0934,2.0929,2.0973,2.0902,2.0788,2.0775,2.0927,2.0929,2.093,0,2.105,2.1014,2.0972,2.0966,2.0961,2.0941,2.0937,2.093,2.0916,2.0899,2.0889,2.0868,2.0855,2.0837,2.0847,2.0876,2.0794,2.0835,2.0794,2.0794,2.0774,2.0775,2.0654,2.0767,2.0768,2.0768,2.0768,0,2.0956,2.0916,2.0936,2.091,2.0866,2.0885,2.084,2.084,2.0834,2.0807,2.0832,2.0806,2.0822,2.0797,2.0804,2.076,2.0754,2.0755,2.0757,2.0752,2.0752,2.0742,2.0747,2.0765,2.0765,2.0766,2.0767,0,2.0858,2.087,2.0826,2.0826,2.0825,2.0793,2.0792,2.0767,2.0773,2.0739,2.0732,2.0739,2.0711,2.072,2.0689,2.0694,2.0638,2.0648,2.0642,2.0644,2.0603,2.0606,2.047,2.0453,2.0578,2.0577,2.0576,0,2.0796,2.0766,2.0764,2.075,2.0745,2.0721,2.0707,2.0725,2.0709,2.0696,2.0672,2.0647,2.0628,2.0581,2.0583,2.0559,2.0568,2.0522,2.0564,2.056,2.0566,2.0567,2.0564,2.0513,2.0511,2.051,2.0509,0,2.0685,2.0693,2.0673,2.0656,2.0639,2.0626,2.0614,2.06,2.0617,2.0598,2.0571,2.0556,2.0526,2.05,2.048,2.0475,2.0494,2.0496,2.0486,2.0479,2.0477,2.0476,2.0617,2.0499,2.05,2.0501,2.0501,2.0502,2.0602,2.0577,2.0573,2.055,2.0544,2.0533,2.051,2.0513,2.0492,2.047,2.0481,2.045,2.0441,2.0415,2.0408,2.0382,2.0399,2.0384,2.038,2.0375,2.037,2.0482,2.0378,2.0379,2.0379,2.0379,2.0379,0,2.0491,2.049,2.047,2.0454,2.0436,2.0459,2.0448,2.0431,2.0403,2.0394,2.0376,2.0344,2.032,2.032,2.0297,2.0277,2.0285,2.027,2.027,2.0269,2.0356,2.0367,2.0263,2.0263,2.0263,2.0264,2.0264,2.0264,2.0431,2.0391,2.0398,2.0355,2.0354,2.0325,2.0316,2.0306,2.0299,2.0264,2.0244,2.0246,2.024,2.0217,2.0195,2.0196,2.0186,2.0167,2.017,2.0251,2.0263,2.0274,2.0284,2.0165,2.0165,2.0086,2.0085,2.0084]}]]